Location: Boullarre
(49.1305°N, 3.0047°E)
Time: 09:37:58
(UTC+00:00)

IRIDIUM 104 - Pass Details

Date: 03 February 2023
Orbit: 776 x 779 km, 86.4° (Epoch: 23 March)

Event Time Altitude Azimuth Distance (km) Brightness Sun altitude
Rises 18:25:27 0° 357° (N) 3,277 7.5 -16.2°
Reaches altitude 10° 18:27:49 10° 360° (N) 2,344 6.8 -16.6°
Maximum altitude 18:33:04 73° 85° (E) 820 4.2 -17.4°
Drops below altitude 10° 18:38:16 10° 170° (S) 2,325 6.7 -18.3°
Sets 18:40:37 0° 172° (S) 3,247 7.5 -18.6°
